Location: Ariel
(45.9570°N, 122.5700°W)
Time: 02:43:53
(UTC-07:00)

Transit 4A - Pass Details

Date: 23 July 2019
Orbit: 863 x 981 km, 66.8° (Epoch: 19 August)

Event Time Altitude Azimuth Distance (km) Brightness Sun altitude
Rises 03:03:01 0° 228° (SW) 3,648 - -19.7°
Reaches altitude 10° 03:05:38 10° 233° (SW) 2,714 - -19.5°
Exits shadow 03:08:16 25° 244° (WSW) 1,846 9.0 -19.3°
Maximum altitude 03:11:51 53° 310° (NW) 1,190 8.5 -19.0°
Drops below altitude 10° 03:18:08 10° 27° (NNE) 2,740 11.6 -18.5°
Sets 03:20:48 0° 32° (NNE) 3,686 12.8 -18.2°
